GJONW EGBO-EGBO

Flight info

Callsign GJONW
Flight time 0h 16m
Altitude 5000
Route TELBA DCT CONHA DCT ATHAS DCT BEPHE DCT KAMJU
Aircraft C182/L-SDGRY/S

Departure

Time 2026-04-25 18:44
Airport Wolverhampton Halfpenny Green Airport (EGBO)

Arrival

Time 2026-04-25 19:00
Airport Wolverhampton Halfpenny Green Airport (EGBO)
Time Latitude Longitude Altitude Speed Heading
2026-04-25 18:39 52.51266 -2.26056 284 ft 0 kts 245°
2026-04-25 18:40 52.51274 -2.26066 289 ft 4 kts 339°
2026-04-25 18:41 52.51325 -2.26080 285 ft 11 kts 14°
2026-04-25 18:41 52.51332 -2.25970 286 ft 13 kts 162°
2026-04-25 18:41 52.51269 -2.25849 288 ft 16 kts 114°
2026-04-25 18:41 52.51244 -2.25705 290 ft 14 kts 86°
2026-04-25 18:42 52.51312 -2.25642 292 ft 10 kts 332°
2026-04-25 18:42 52.51318 -2.25647 292 ft 0 kts 333°
2026-04-25 18:42 52.51371 -2.25688 292 ft 30 kts 339°
2026-04-25 18:43 52.51728 -2.25950 281 ft 81 kts 336°
2026-04-25 18:43 52.52298 -2.26365 469 ft 95 kts 334°
2026-04-25 18:43 52.52946 -2.26961 582 ft 119 kts 333°
2026-04-25 18:43 52.53724 -2.27673 702 ft 135 kts 330°
2026-04-25 18:44 52.54563 -2.28476 834 ft 143 kts 330°
2026-04-25 18:44 52.55439 -2.29308 966 ft 147 kts 330°
2026-04-25 18:44 52.56304 -2.30134 1093 ft 149 kts 330°
2026-04-25 18:44 52.57204 -2.30994 1223 ft 150 kts 330°
2026-04-25 18:45 52.58104 -2.31856 1353 ft 150 kts 330°
2026-04-25 18:45 52.59005 -2.32723 1479 ft 150 kts 330°
2026-04-25 18:45 52.59903 -2.33590 1607 ft 150 kts 330°
2026-04-25 18:45 52.60803 -2.34460 1734 ft 150 kts 330°
2026-04-25 18:46 52.61689 -2.35164 1749 ft 130 kts 348°
2026-04-25 18:46 52.62490 -2.34939 1631 ft 107 kts 35°
2026-04-25 18:46 52.62898 -2.33964 1388 ft 92 kts 62°
2026-04-25 18:46 52.63188 -2.33042 818 ft 92 kts 64°
2026-04-25 18:47 52.63471 -2.32177 544 ft 81 kts 62°
2026-04-25 18:47 52.63731 -2.31421 381 ft 73 kts 59°
2026-04-25 18:47 52.63980 -2.30756 283 ft 59 kts 58°
2026-04-25 18:47 52.64180 -2.30225 270 ft 66 kts 58°
2026-04-25 18:48 52.64451 -2.29458 355 ft 86 kts 60°
2026-04-25 18:48 52.64800 -2.28631 498 ft 91 kts 38°
2026-04-25 18:48 52.65412 -2.28792 642 ft 97 kts 325°
2026-04-25 18:48 52.65973 -2.29369 811 ft 96 kts 330°
2026-04-25 18:49 52.66542 -2.29936 991 ft 95 kts 330°
2026-04-25 18:49 52.67108 -2.30501 1167 ft 95 kts 330°
2026-04-25 18:49 52.67610 -2.31182 1321 ft 98 kts 295°
2026-04-25 18:49 52.67768 -2.32265 1496 ft 97 kts 287°
2026-04-25 18:50 52.67943 -2.33332 1680 ft 96 kts 286°
2026-04-25 18:50 52.68117 -2.34389 1852 ft 95 kts 286°
2026-04-25 18:50 52.68270 -2.35444 2027 ft 95 kts 277°
2026-04-25 18:50 52.68300 -2.36532 2192 ft 96 kts 274°
2026-04-25 18:51 52.68301 -2.37706 2205 ft 109 kts 259°
2026-04-25 18:51 52.68229 -2.38100 2208 ft 112 kts 251°
2026-04-25 18:51 52.67822 -2.40209 2214 ft 118 kts 253°
2026-04-25 18:51 52.67577 -2.41503 2216 ft 119 kts 253°
2026-04-25 18:52 52.67333 -2.42790 2216 ft 119 kts 253°
2026-04-25 18:52 52.66953 -2.43987 2204 ft 119 kts 229°
2026-04-25 18:52 52.66296 -2.44842 2139 ft 124 kts 216°
2026-04-25 18:52 52.65536 -2.45786 2022 ft 149 kts 217°
2026-04-25 18:53 52.64668 -2.46863 1927 ft 162 kts 217°
2026-04-25 18:53 52.63747 -2.48003 1834 ft 168 kts 217°
2026-04-25 18:53 52.62815 -2.49157 1816 ft 166 kts 217°
2026-04-25 18:53 52.61882 -2.50278 1812 ft 165 kts 211°
2026-04-25 18:54 52.59683 -2.50439 1806 ft 162 kts 174°
2026-04-25 18:54 52.58561 -2.50281 1807 ft 162 kts 173°
2026-04-25 18:54 52.57448 -2.50055 1796 ft 161 kts 163°
2026-04-25 18:55 52.56440 -2.49295 1803 ft 159 kts 152°
2026-04-25 18:55 52.55534 -2.48270 1796 ft 159 kts 129°
2026-04-25 18:55 52.54944 -2.46735 1800 ft 159 kts 116°
2026-04-25 18:55 52.54472 -2.45105 1435 ft 155 kts 115°
2026-04-25 18:56 52.54038 -2.43690 1303 ft 123 kts 116°
2026-04-25 18:56 52.53674 -2.42560 1234 ft 104 kts 118°
2026-04-25 18:56 52.53363 -2.41454 1147 ft 109 kts 106°
2026-04-25 18:56 52.53131 -2.40242 1095 ft 111 kts 107°
2026-04-25 18:57 52.52909 -2.39043 1093 ft 109 kts 106°
2026-04-25 18:57 52.52665 -2.37878 1102 ft 107 kts 109°
2026-04-25 18:57 52.52433 -2.36700 1047 ft 111 kts 104°
2026-04-25 18:57 52.52374 -2.36299 1014 ft 112 kts 103°
2026-04-25 18:58 52.52162 -2.34221 970 ft 109 kts 98°
2026-04-25 18:58 52.52077 -2.32142 987 ft 75 kts 90°
2026-04-25 18:58 52.52049 -2.31328 958 ft 71 kts 94°
2026-04-25 18:59 52.51980 -2.29703 845 ft 71 kts 94°
2026-04-25 18:59 52.51826 -2.28008 521 ft 78 kts 98°
2026-04-25 19:00 52.51677 -2.26312 284 ft 62 kts 87°
2026-04-25 19:00 52.51653 -2.25800 283 ft 35 kts 96°
2026-04-25 19:01 52.51644 -2.25551 288 ft 1 kts 150°
2026-04-25 19:01 52.51641 -2.25555 288 ft 2 kts 244°
2026-04-25 19:01 52.51639 -2.25560 288 ft 0 kts 246°
2026-04-25 19:05 52.51639 -2.25561 288 ft 1 kts 248°
2026-04-25 19:05 52.51640 -2.25621 288 ft 7 kts 274°
2026-04-25 19:06 52.51644 -2.25713 286 ft 10 kts 279°
2026-04-25 19:06 52.51601 -2.25854 284 ft 7 kts 155°
2026-04-25 19:06 52.51570 -2.25829 285 ft 3 kts 155°
2026-04-25 19:07 52.51567 -2.25827 285 ft 0 kts 155°
2026-04-25 19:07 52.51549 -2.25813 286 ft 13 kts 154°
2026-04-25 19:08 52.51246 -2.25701 290 ft 21 kts 263°
2026-04-25 19:08 52.51280 -2.25920 287 ft 19 kts 265°
2026-04-25 19:09 52.51296 -2.26081 286 ft 0 kts 245°
2026-04-25 19:28 52.51283 -2.26079 286 ft 4 kts 146°
2026-04-25 19:28 52.51262 -2.26014 287 ft 11 kts 71°
2026-04-25 19:28 52.51271 -2.25855 288 ft 18 kts 109°
2026-04-25 19:29 52.51255 -2.25647 291 ft 17 kts 64°
2026-04-25 19:29 52.51374 -2.25685 293 ft 36 kts 334°
2026-04-25 19:29 52.51768 -2.25980 280 ft 86 kts 336°
2026-04-25 19:29 52.52369 -2.26414 478 ft 96 kts 337°
2026-04-25 19:30 52.52985 -2.26398 659 ft 90 kts 33°
2026-04-25 19:30 52.53209 -2.25507 709 ft 88 kts 97°
2026-04-25 19:30 52.52867 -2.24673 720 ft 90 kts 137°
2026-04-25 19:30 52.52399 -2.23966 721 ft 91 kts 133°
2026-04-25 19:31 52.51957 -2.23194 734 ft 92 kts 133°
2026-04-25 19:31 52.51416 -2.22811 692 ft 92 kts 199°
2026-04-25 19:31 52.51178 -2.23636 727 ft 83 kts 280°
2026-04-25 19:31 52.51419 -2.24532 567 ft 92 kts 301°
2026-04-25 19:32 52.51631 -2.25578 332 ft 100 kts 280°
2026-04-25 19:32 52.51729 -2.26634 369 ft 89 kts 281°
2026-04-25 19:32 52.51726 -2.27646 504 ft 90 kts 260°
2026-04-25 19:32 52.51665 -2.27984 526 ft 93 kts 247°
2026-04-25 19:33 52.50831 -2.29030 700 ft 100 kts 183°
2026-04-25 19:33 52.50121 -2.28957 798 ft 104 kts 162°
2026-04-25 19:33 52.49475 -2.28329 830 ft 107 kts 143°
2026-04-25 19:33 52.49007 -2.27421 715 ft 107 kts 110°
2026-04-25 19:34 52.48950 -2.26295 704 ft 99 kts 78°
2026-04-25 19:34 52.49333 -2.25405 633 ft 94 kts 43°
2026-04-25 19:34 52.49927 -2.25112 565 ft 89 kts
2026-04-25 19:34 52.50535 -2.25139 494 ft 86 kts 354°
2026-04-25 19:35 52.51052 -2.25447 396 ft 75 kts 337°
2026-04-25 19:35 52.51527 -2.25802 294 ft 73 kts 337°
2026-04-25 19:35 52.51936 -2.26097 277 ft 56 kts 337°
2026-04-25 19:35 52.52160 -2.26305 271 ft 14 kts 284°
2026-04-25 19:36 52.52105 -2.26389 272 ft 11 kts 200°
2026-04-25 19:36 52.52037 -2.26435 274 ft 10 kts 202°
2026-04-25 19:36 52.51967 -2.26513 275 ft 15 kts 230°
2026-04-25 19:36 52.51903 -2.26636 276 ft 15 kts 226°
2026-04-25 19:37 52.51823 -2.26772 274 ft 17 kts 226°
2026-04-25 19:37 52.51748 -2.26914 271 ft 17 kts 228°
2026-04-25 19:37 52.51653 -2.26970 273 ft 13 kts 159°
2026-04-25 19:37 52.51607 -2.26897 281 ft 7 kts 128°
2026-04-25 19:38 52.51558 -2.26759 287 ft 22 kts 107°
2026-04-25 19:38 52.51532 -2.26514 281 ft 22 kts 92°
2026-04-25 19:38 52.51522 -2.26303 281 ft 6 kts 95°
2026-04-25 19:38 52.51548 -2.26283 280 ft 9 kts 349°
2026-04-25 19:39 52.51569 -2.26239 281 ft 2 kts 96°
2026-04-25 19:39 52.51563 -2.26222 281 ft 7 kts 174°
2026-04-25 19:39 52.51558 -2.26277 280 ft 10 kts 47°
2026-04-25 19:39 52.51567 -2.26244 281 ft 1 kts 91°
2026-04-25 19:40 52.51567 -2.26239 281 ft 0 kts 91°